Regional Weather Roundup
Issued by NWS Charleston, SC

Current Version | Previous Version | Graphics & Text | Print | Product List | Glossary On
Versions: 1 2 3 4 5 6 7 8 9 10 11 12 13 14 15 16 17 18 19 20 21 22 23 24 25 26 27 28 29 30 31 32 33 34 35 36 37 38 39 40 41 42 43 44 45 46 47 48 49 50
263
ASUS42 KCHS 041627
RWRCHS

REGIONAL WEATHER ROUNDUP
NATIONAL WEATHER SERVICE CHARLESTON SC
1100 AM EST SUN DEC 04 2016

NOTE: "FAIR" INDICATES FEW OR NO CLOUDS BELOW 12,000 FEET WITH NO
SIGNIFICANT WEATHER AND/OR OBSTRUCTIONS TO VISIBILITY.

NOT ALL STATIONS ARE QUALITY CONTROLLED. USE DATA WITH CAUTION...
ESPECIALLY DEWPOINT OBSERVATIONS.

SCZ027-030-031-034>040-042>050-041700-
...SOUTHEAST SOUTH CAROLINA...

CITY           SKY/WX    TMP DP  RH WIND       PRES   REMARKS
N CHARLESTON   CLOUDY    56  41  57 E7        30.23R
WATERFRONT PRK   N/A     55  47  74 NE12      30.21S
MOUNT PLEASANT CLOUDY    55  45  67 NE5       30.23R
JOHNS ISLAND   CLOUDY    59  48  67 NE12      30.22F
PINOPOLIS        N/A     52  39  62 E7        30.17R
MONCKS CORNER  CLOUDY    54  34  47 E8        30.22F
SUMMERVILLE    CLOUDY    54  41  62 NE3       30.24F
BEAUFORT MCAS  CLOUDY    57  44  62 NE8G16    30.21S
BEAUFORT ARPT  PTSUNNY   59  46  63 NE14G20   30.19F HAZE
HILTON HEAD IS PTSUNNY   63  52  67 N8        30.20R
WALTERBORO     CLOUDY    55  41  58 NE8       30.22F
ALLENDALE      CLOUDY    52  37  58 VRB5      30.19F

...SOUTHERN MIDLANDS AND PEE DEE...

CITY           SKY/WX    TMP DP  RH WIND       PRES   REMARKS
GEORGETOWN     NOT AVBL
KINGSTREE      CLOUDY    50  36  57 E5        30.23F
ORANGEBURG     CLOUDY    51  34  52 E8        30.23F
BARNWELL       NOT AVBL
AIKEN          LGT RAIN  46  37  71 NE9       30.25F
MANNING        NOT AVBL
COLUMBIA       LGT RAIN  49  37  63 E7        30.25R
SUMTER         CLOUDY    48  39  71 NE9       30.22F
FLORENCE       CLOUDY    48  39  71 E8        30.27S
MYRTLE BEACH   CLOUDY    52  36  54 NE9       30.27F
N MYRTLE BEACH CLOUDY    50  36  58 NE9       30.26F

$$

GAZ063-065-086>088-099>101-113>116-118-119-134>141-150-041700-
...SOUTHEAST GEORGIA...

CITY           SKY/WX    TMP DP  RH WIND       PRES   REMARKS
SAVANNAH ARPT  CLOUDY    62  46  55 NE9       30.18F
HUNTER AAF     PTSUNNY   63  55  75 E14       30.15F
FORT STEWART   MOSUNNY   64  50  61 E12       30.13F
STATESBORO     CLOUDY    55  44  65 E7        30.17F
SYLVANIA       CLOUDY   N/A N/A N/A E7        30.18F
CLAXTON        CLOUDY    61  49  65 NE7       30.16F

...CSRA...CENTRAL AND FAR SOUTHEAST GEORGIA...

CITY           SKY/WX    TMP DP  RH WIND       PRES   REMARKS
THOMSON        CLOUDY    49  46  87 CALM      30.24F
AUGUSTA-BUSH   LGT RAIN  53  37  54 N8        30.24R
AUGUSTA-DANIEL LGT RAIN  51  37  58 NE7       30.23R
SWAINSBORO     CLOUDY    50  43  76 N7        30.21R
VIDALIA        CLOUDY    59  50  72 E7        30.16F
EASTMAN        CLOUDY    56  38  50 E7        30.17F
HAZLEHURST     CLOUDY    61  52  72 E7        30.13F
ALMA           CLOUDY    63  53  70 E6        30.13S
WAYCROSS       CLOUDY    67  60  76 E7        30.11F
JESUP          PTSUNNY   64  57  77 E14       30.13F
BAXLEY         CLOUDY    63  55  77 CALM      30.14S
BRUNSWICK      CLOUDY    70  63  78 E6        30.14F
SAINT SIMONS   CLOUDY    68  59  73 E9        30.14S

$$

SCZ027-028-034-036>038-045-046-048>050-GAZ119-141-041700-
...LAKE AND SUPPLEMENTAL COASTAL OBSERVATIONS...

STATION/POSITION TIME  TEMP    WIND        PRES    WAVE   SWELL
                       AIR SEA DIR/SP/G            HT/PER HT/PER/DIR
                 (UTC) (F)     (DEG/KT/KT) (MB)    (FT/S) (FT/S/D)
WINYAH BAY       1530   54      60/ 14     1024.0S
LAKE MURRAY      1550   46      30/  2/  6 1024.4R
ACE BASIN NERRS  1545   56      40/  4     1023.0R
FORT PULASKI     1600   59 61   70/ 18/ 22 1022.0
SAPELO ISLAND    1600   69      80/  5     1021.0

$$

ANZ835-935-AMZ111-154-330-350-352-354-370-450-454-472-041700-
...C-MAN AND BUOY OBSERVATIONS...

STATION/POSITION TIME  TEMP    WIND        PRES    WAVE   SWELL
                       AIR SEA DIR/SP/G            HT/PER HT/PER/DIR
                 (UTC) (F)     (DEG/KT/KT) (MB)    (FT/S) (FT/S/D)
BUOY 41004       1550   65 75   80/ 12/ 17 1021.9F   3/ 8   2/100/ 8
BUOY 41008       1550   67 65  110/  8/ 10 1020.6F   3/ 5   3/ 80/ 5
FOLLY BEACH CMAN 1600   56      40/ 16/ 18 1023.9R
CAPERS NEARSHORE 1608   58 62   50/ 17/ 23 1022.8R
FRIPP NEARSHORE  1608   60 62   60/ 17/ 21 1022.1F


STATION/POSITION TIME  TEMP    WIND        PRES    WAVE   SWELL
                       AIR SEA DIR/SP/G            HT/PER HT/PER/DIR
                 (UTC) (F)     (DEG/KT/KT) (MB)    (FT/S) (FT/S/D)
5E ST. MARYS GA  1600      66                N/A     4/ 5
FRYING PAN BUOY  1610   61 74   40/ 14/ 17 1023.0
BUOY 41025       1550   54 75   40/ 10/ 14 1024.6F   5/ 9   5/ 60/ 9
CAPE LOOKOUT NC  1600   51      20/  8/ 10 1024.4F
BUOY 41002       1550   65 73   80/  4/  6 1022.8S   5/ 9   5/ 30/ 9
BUOY 41010       NOT AVBL
ST AUGUSTINE FL  1600   69 67  150/ 10/ 11 1020.4S


$$




USA.gov is the U.S. government's official web portal to all federal, state and local government web resources and services.